CAPE
0 1 1 5 4 5 4 5 5 4 1 3 2 2 2 2 3 9 23 23 29 9 16 3 3 1 1 3 5 4 7 11 9 10 3 0 34 19 17 22 35 36 11
0 0 0 2 1 1 3 3 2 4 2 2 2 1 1 4 4 6 20 14 14 19 25 23 13 5 2 1 3 4 7 5 13 11 5 6 14 40 31 47 51 36 15
0 0 0 0 0 0 5 4 2 3 4 4 0 1 5 1 14 2 18 12 9 6 2 7 19 8 4 1 2 1 2 12 9 14 8 7 10 22 33 59 39 56 36
0 0 0 2 3 2 4 4 2 1 3 5 5 0 9 6 2 2 2 2 3 2 4 19 18 8 10 12 11 9 4 1 10 8 9 3 13 19 21 15 14 47 35
0 0 0 0 2 2 4 5 3 1 2 3 3 5 1 24 23 4 2 2 1 0 1 2 7 13 15 11 7 1 10 8 1 8 11 10 18 20 10 6 14 6 2
0 0 0 1 0 0 3 1 4 0 0 3 3 7 2 10 28 15 1 1 4 6 3 0 3 7 13 14 16 2 9 0 2 17 3 11 8 0 0 0 0 0 0
0 0 0 2 0 1 1 2 3 3 1 0 3 6 16 14 10 9 6 2 0 1 0 14 2 3 8 7 14 12 8 14 12 8 7 5 1 0 0 0 0 0 0
0 0 0 0 0 2 2 0 0 2 0 3 2 8 10 9 9 2 0 3 2 1 1 4 9 4 5 1 2 0 0 0 1 1 0 0 0 0 0 0 0 1 1
0 0 0 0 0 1 0 1 1 0 1 2 3 4 5 6 12 2 0 2 1 0 0 3 3 5 9 5 1 1 1 0 1 2 3 4 3 5 0 1 0 0 0
0 0 0 0 0 0 0 0 0 0 0 0 1 1 3 7 10 10 0 0 1 0 3 1 9 14 26 3 0 0 0 0 0 1 1 1 1 0 0 1 1 1 1
0 0 0 0 0 0 1 1 0 0 0 0 0 1 1 2 6 8 5 0 0 1 2 1 3 8 10 10 12 4 1 1 2 1 1 3 2 1 0 0 1 0 1
0 0 0 0 0 0 0 0 0 0 0 0 0 0 0 2 7 4 3 1 0 0 0 1 3 3 2 4 3 3 0 0 0 0 0 0 1 1 0 1 0 0 1
0 0 0 0 0 0 0 0 0 0 0 0 0 0 0 1 1 3 1 0 0 0 0 0 0 0 0 0 0 0 0 0 0 0 0 0 0 0 0 0 0 0 2
0 0 0 0 0 0 0 0 0 0 0 0 0 0 0 0 1 1 0 0 0 0 0 0 0 0 0 0 0 0 0 0 0 0 0 0 0 0 0 0 0 0 1
0 0 0 0 0 0 0 0 0 0 1 0 1 0 0 0 1 2 0 0 0 0 0 0 0 0 0 0 0 0 1 2 2 1 2 1 1 0 0 0 0 0 0
0 0 0 0 0 0 0 0 0 0 0 0 0 0 0 0 0 0 0 0 0 0 0 0 0 0 0 0 0 0 0 1 1 2 2 3 2 2 1 0 0 2 2
0 0 0 0 0 0 0 0 0 0 0 0 0 0 0 0 0 0 0 0 0 0 0 0 0 0 0 0 0 0 0 0 2 2 2 2 2 4 3 3 2 2 1
0 0 0 0 0 0 0 0 0 0 0 0 0 0 0 0 0 0 0 0 0 0 0 0 0 0 0 0 0 0 0 0 0 0 1 1 1 1 2 3 3 3 6
0 0 0 0 0 0 0 0 0 0 0 0 0 0 0 0 0 0 0 0 0 0 0 0 0 0 0 0 0 0 0 0 0 0 0 2 0 2 1 2 2 2 2
0 0 0 0 0 0 0 0 0 0 0 0 0 0 0 0 0 0 0 0 0 0 0 0 0 0 0 0 0 0 0 0 0 0 0 0 1 1 2 1 1 2 2
0 0 0 0 0 0 0 0 0 0 0 0 0 0 0 0 0 0 0 0 0 0 0 0 0 0 0 0 0 0 0 0 0 0 0 0 0 0 0 0 1 2 1
0 0 0 0 0 0 0 0 0 0 0 0 0 0 0 0 0 0 0 0 0 0 0 0 0 0 0 0 0 0 0 0 0 0 0 0 0 0 0 1 1 2 0
0 0 0 0 0 0 0 0 0 0 0 0 0 0 0 0 0 0 0 0 0 0 0 0 0 0 0 0 0 0 0 0 0 0 0 0 0 0 0 0 0 1 0
0 0 0 0 0 0 0 0 0 0 0 0 0 0 0 0 0 0 0 0 0 0 0 0 0 0 0 0 0 0 0 0 0 0 0 0 0 0 0 0 0 0 0
0 0 0 0 0 0 0 0 0 0 0 0 0 0 0 0 0 0 0 0 0 0 0 0 0 0 0 0 0 0 0 0 0 0 0 0 0 0 0 0 0 0 0
0 0 0 1 1 0 0 0 0 0 0 0 0 0 0 0 0 0 0 0 0 0 0 0 0 0 0 0 0 0 0 0 0 0 0 0 0 0 0 0 0 0 0
CIN
-1 -2 -2 -1 -2 -1 -2 -1 -1 -1 -1 -1 0 0 0 0 -1 -5 0 -1 -1 -4 -1 -1 0 0 0 -4 -1 0 0 0 -1 -2 -12 0 -5 -3 -2 -15 -1 -1 -5
0 0 -2 -1 0 -2 -2 -2 -1 0 -1 -1 0 0 0 -1 0 -3 -1 -1 -1 -1 -1 0 -1 0 0 0 -2 -1 0 0 0 0 -2 -3 -3 -3 -3 -6 -2 -1 -3
0 0 -1 -1 0 -1 -2 -2 -1 -1 -1 -1 0 0 0 0 -1 -1 -1 -1 -1 -1 -10 -4 -1 -1 -1 0 0 0 -3 0 0 0 -1 -7 -4 -3 -5 -2 -4 -4 -9
0 0 -1 -1 0 -1 -1 -1 -1 -2 -2 -1 -1 -1 0 0 0 0 0 0 -1 0 0 0 -1 -1 -2 -2 -1 -1 -3 0 0 0 -1 -3 0 -5 -20 -8 -11 -12 -7
0 0 -1 -2 -1 -1 -1 -1 -2 -2 -2 -2 -1 0 0 0 0 0 0 0 0 0 0 0 -1 -1 -1 -1 -2 -2 -4 -1 -1 0 0 -1 0 -2 -10 -42 -23 -40 -13
0 0 -1 -2 -1 -1 -1 -1 -2 -2 0 -1 -2 -1 -18 -2 0 0 0 0 0 0 0 0 0 0 0 0 0 0 0 0 0 0 -2 0 -1 0 0 0 0 0 0
0 0 0 -1 -1 -2 -2 -2 -2 -2 -3 -2 -2 -1 -1 -3 -1 -1 -13 -1 0 0 0 0 0 0 0 -3 0 -3 0 0 0 0 0 0 -3 0 0 0 0 0 0
0 0 0 0 -1 -1 -2 -3 -1 -1 -1 -2 -2 -1 -1 -2 -1 -1 0 -1 -1 -1 0 0 -1 0 0 0 0 0 0 0 0 0 -1 0 -1 0 0 0 0 0 0
0 0 0 0 0 -1 -1 -2 -2 -1 -2 -1 -2 -1 -1 -2 -2 -1 -1 -2 -2 0 0 0 0 0 0 0 0 0 0 0 0 0 0 0 0 0 0 0 0 0 0
0 0 0 0 0 0 -2 -1 -1 0 0 0 -1 -1 -1 -1 -1 -1 -1 -1 -2 -1 0 -1 -1 0 0 0 0 0 0 0 0 0 0 0 0 0 0 0 0 0 0
0 0 0 0 0 0 -2 -1 -1 0 0 0 0 -2 -1 -1 -1 -1 -1 0 -1 -2 -2 -1 -1 -1 -1 0 0 0 -1 0 -1 0 0 0 0 0 0 0 0 0 0
0 0 0 0 0 0 0 -1 -1 0 0 0 0 0 0 -1 -1 -1 -1 0 0 0 -1 -2 -1 -1 -1 -1 0 0 0 0 -1 -1 -1 0 0 0 0 0 0 0 0
0 0 0 0 0 0 0 0 0 0 0 0 0 -1 0 -1 -1 -1 0 0 0 0 0 0 0 0 0 0 0 0 0 0 0 0 0 0 0 0 0 0 0 0 0
0 0 0 0 0 0 0 0 0 0 0 0 0 0 -2 0 -1 -1 -1 0 0 0 0 0 0 0 -1 -1 0 0 -1 0 0 0 0 0 0 0 0 0 0 0 0
0 0 0 0 0 0 0 0 0 0 -1 -1 -1 -1 -1 0 -1 -1 -1 -1 0 0 0 0 0 0 0 0 0 -2 -1 -1 -1 -1 -2 -2 -1 -1 0 0 0 0 0
0 0 0 0 0 0 0 0 0 0 0 0 0 0 0 0 -1 0 0 0 0 0 0 0 0 0 0 0 0 0 -1 -1 0 0 0 0 0 0 -1 -1 -2 0 -1
0 0 0 0 0 0 0 0 0 0 0 0 0 0 0 0 0 0 0 0 0 0 0 0 0 0 0 0 0 0 0 0 0 0 0 0 0 0 0 0 0 0 0
0 0 0 0 0 0 0 0 0 0 0 0 0 0 0 0 0 0 0 0 0 0 0 0 0 0 0 0 0 0 0 0 0 0 0 0 0 0 0 0 0 0 0
0 0 0 0 0 0 0 0 0 0 0 0 0 0 0 0 0 0 0 0 0 0 0 0 0 0 0 0 0 0 0 0 0 0 0 0 0 0 0 0 0 0 0
0 0 0 0 0 0 0 0 0 0 0 0 0 0 0 0 0 0 0 0 0 0 0 0 0 0 0 0 0 0 0 0 0 0 0 0 0 0 0 0 0 0 0
0 0 0 0 0 0 0 0 0 0 0 0 0 0 0 0 0 0 0 0 0 0 0 0 0 0 0 0 0 0 0 0 0 0 0 0 0 0 0 0 0 0 0
0 0 0 0 0 0 0 0 0 0 0 0 0 0 0 0 0 0 0 0 0 0 0 0 0 0 0 0 0 0 0 0 0 0 0 0 0 0 0 0 0 0 0
0 0 0 0 0 0 0 0 0 0 0 0 0 0 0 0 0 0 0 0 0 0 0 0 0 0 0 0 0 0 0 0 0 0 0 0 0 0 0 0 0 0 0
0 0 0 0 0 0 0 0 0 0 0 0 0 0 0 0 0 0 0 0 0 0 0 0 0 0 0 0 0 0 0 0 0 0 0 0 0 0 0 0 0 0 0
0 0 0 0 0 0 0 0 0 0 0 0 0 0 0 0 0 0 0 0 0 0 0 0 0 0 0 0 0 0 0 0 0 0 0 0 0 0 0 0 0 0 0
0 0 0 0 0 0 0 0 0 0 0 0 0 0 0 0 0 0 0 0 0 0 0 0 0 0 0 0 0 0 0 0 0 0 0 0 0 0 0 0 0 0 0
Wind_Speed
30 32 33 33 34 34 32 31 26 24 19 14 13 13 10 11 12 12 13 15 18 17 15 14 15 14 16 17 19 21 24 25 28 26 22 29 26 24 24 26 27 28 29
27 29 32 32 32 31 33 31 28 24 21 15 14 13 14 5 11 10 11 21 22 20 17 14 11 13 6 12 16 18 21 23 27 30 28 30 27 25 26 27 28 29 30
24 26 29 31 32 31 32 32 29 28 25 18 14 17 18 17 16 18 21 22 21 21 18 16 13 12 7 6 11 17 20 22 22 27 30 31 31 29 29 29 29 28 29
23 26 29 30 32 31 30 31 31 29 29 27 16 25 23 27 24 25 26 26 25 23 19 13 12 7 7 6 3 6 16 21 23 23 26 25 28 25 29 31 33 30 31
22 25 27 27 29 31 30 29 30 30 28 31 32 40 29 30 29 29 29 28 28 24 15 7 6 5 11 9 7 4 10 16 20 23 24 23 24 23 27 31 33 30 30
22 24 26 26 27 31 30 30 28 31 32 31 33 32 35 28 28 30 30 31 31 28 24 12 6 8 14 10 9 9 1 16 20 20 23 26 27 26 27 29 31 31 33
22 24 26 27 28 28 30 30 31 31 31 33 31 31 28 18 27 28 31 30 31 32 7 11 15 8 10 11 12 15 17 15 24 14 21 22 25 26 29 30 32 33 33
23 25 25 26 28 27 26 30 30 30 31 30 33 30 29 25 16 28 32 31 31 32 34 13 31 24 15 13 13 13 12 14 18 21 20 21 22 24 22 25 28 29 30
23 24 24 24 24 25 27 27 29 29 30 31 29 31 28 26 26 25 24 32 31 33 34 31 29 30 25 22 18 15 12 12 21 20 19 20 22 23 22 23 24 24 28
21 22 22 23 24 26 26 26 25 27 27 27 31 30 30 27 23 24 24 23 24 25 32 33 22 31 30 27 23 20 18 20 19 19 21 22 23 25 25 24 23 16 22
20 21 22 23 24 25 26 26 26 27 27 27 27 28 29 28 28 26 25 24 22 22 21 19 17 13 31 27 26 25 23 20 20 19 19 20 20 21 21 23 25 9 5
19 21 23 24 24 24 24 25 26 26 28 29 28 28 28 27 27 28 27 27 25 23 22 20 18 17 17 12 21 27 25 23 21 20 20 20 20 20 20 19 19 17 16
19 21 22 23 24 24 25 25 26 26 27 27 27 26 27 26 26 26 26 25 25 26 23 21 20 20 20 19 18 15 13 13 18 23 21 21 21 21 20 19 18 18 18
18 20 21 23 23 24 24 24 25 27 26 26 27 26 24 25 26 25 25 24 24 24 23 21 21 20 21 21 20 18 16 15 13 12 10 11 18 21 21 20 20 20 19
18 18 20 22 23 24 25 26 25 26 25 26 25 24 26 25 23 21 22 25 23 23 23 24 24 24 24 23 22 21 19 16 14 12 10 8 9 10 12 14 21 21 21
18 19 19 19 21 23 25 26 27 27 26 26 27 26 24 24 23 22 22 22 23 23 25 26 26 26 25 24 23 22 21 19 17 15 13 11 9 8 7 8 9 4 21
17 18 19 20 20 21 23 26 26 26 27 28 27 27 27 25 24 23 23 23 25 25 27 26 27 26 25 24 24 23 21 20 18 18 16 12 11 10 10 10 9 9 9
17 17 19 19 19 19 20 22 24 25 25 25 26 27 27 26 26 26 25 26 28 28 27 26 25 25 25 24 24 24 23 22 21 19 18 18 16 14 13 11 10 10 9
16 16 17 18 19 20 19 20 20 22 24 24 24 25 25 25 26 27 27 29 28 27 27 27 25 24 24 23 23 23 23 22 22 23 23 22 20 20 21 19 16 14 13
16 16 16 17 18 19 20 20 20 21 22 23 24 24 23 24 27 27 27 27 27 26 26 25 25 24 24 23 23 22 23 23 23 23 24 23 23 22 21 21 20 19 17
12 16 17 17 18 19 19 20 20 20 20 20 20 20 20 24 25 25 25 26 25 24 23 23 23 23 24 24 23 23 23 23 22 22 22 22 22 22 21 20 20 18 16
11 11 13 16 17 17 18 18 18 19 19 19 18 19 19 21 22 23 23 23 23 23 22 21 22 22 23 23 22 23 22 22 22 22 22 23 22 22 22 22 21 21 22
11 11 11 11 15 16 17 17 18 18 18 18 18 18 18 19 20 20 21 22 22 22 22 22 22 21 22 22 22 22 21 21 20 20 21 21 22 24 25 25 26 27 27
12 11 11 11 10 11 15 17 18 17 18 18 18 17 18 18 18 18 18 19 20 21 23 23 22 22 21 21 21 22 21 19 19 19 19 21 22 21 21 24 27 26 24
12 11 11 10 10 10 9 9 12 16 18 18 18 18 18 18 18 18 17 17 18 19 21 23 24 23 23 21 20 20 20 20 21 20 21 21 21 22 23 22 21 21 20
14 13 12 10 9 9 8 8 8 7 9 14 18 19 19 20 20 19 19 20 18 16 17 20 21 23 25 24 17 16 17 19 21 21 21 21 22 21 21 21 20 21 20
Wind_Direction
35 33 32 31 31 32 33 34 34 34 33 21 347 319 292 255 189 207 260 286 16 16 20 11 348 334 317 304 292 284 278 276 275 276 270 265 267 266 265 262 261 261 263
37 35 34 33 33 35 36 37 38 39 40 36 13 350 331 224 174 233 260 5 15 24 28 30 38 3 356 319 306 293 284 277 274 267 268 266 271 269 266 263 261 262 262
38 37 36 36 37 38 38 39 41 43 45 46 22 350 348 351 334 333 28 22 28 21 28 28 34 32 36 18 317 302 292 284 277 272 268 269 269 266 264 262 262 263 264
41 39 38 38 39 40 41 42 43 45 48 51 15 346 345 359 350 345 351 357 2 12 18 30 37 85 138 126 24 329 298 289 280 277 271 270 269 266 263 260 260 264 265
42 41 39 40 41 43 43 45 46 48 50 51 50 17 348 359 3 5 2 7 10 21 41 66 173 132 196 167 143 20 327 297 283 277 275 272 269 266 263 262 262 265 270
43 42 41 42 44 44 45 47 50 51 51 52 52 52 358 351 356 3 11 11 10 36 40 63 128 182 222 184 122 128 12 305 290 284 278 273 270 269 269 266 266 268 271
44 44 43 44 45 46 47 49 52 52 53 53 55 55 57 348 352 354 8 28 26 12 73 68 70 135 164 86 69 42 51 225 289 200 285 280 278 275 273 272 271 271 272
47 46 47 47 47 48 50 51 53 55 55 55 56 58 60 60 17 351 25 35 31 33 13 78 29 46 82 108 118 112 89 216 298 309 285 289 289 286 283 281 280 279 278
50 49 49 51 51 52 53 54 55 57 57 58 59 59 60 61 61 64 68 44 33 31 21 360 46 41 12 18 56 80 101 196 275 289 294 288 292 295 290 287 283 281 280
53 52 53 54 56 55 58 58 60 60 61 63 62 62 62 62 59 63 67 72 73 69 34 33 350 21 31 25 25 34 27 315 302 292 302 302 301 291 288 286 286 285 287
59 58 58 59 60 61 62 63 63 64 64 65 65 64 63 63 63 63 65 70 73 75 76 77 78 350 18 8 19 25 27 8 340 328 312 301 297 298 298 294 289 285 264
64 63 62 63 65 66 67 68 67 66 65 64 65 65 64 64 63 63 65 67 70 74 75 77 79 81 85 87 49 17 20 16 6 351 341 336 335 331 328 327 323 321 314
68 67 66 67 67 68 69 69 68 67 66 64 64 64 64 63 64 63 65 67 69 72 74 75 76 76 79 81 83 89 97 98 66 4 342 337 333 332 337 339 337 327 317
72 70 70 69 70 71 71 71 70 67 66 65 64 63 62 62 61 62 63 66 68 70 72 73 74 75 76 77 78 81 87 89 95 100 108 93 344 337 334 333 326 325 318
75 74 73 72 71 72 72 70 70 70 68 65 64 64 63 61 59 60 63 63 66 69 71 72 71 70 70 70 73 74 77 80 84 90 100 115 115 114 88 332 329 315 300
76 75 74 75 74 72 71 70 69 69 69 68 66 65 66 64 61 62 65 66 66 70 71 69 68 68 68 68 69 70 72 74 75 78 83 90 103 119 148 148 146 234 309
79 76 74 73 74 73 71 68 66 68 68 66 65 65 65 65 64 63 66 68 67 69 68 67 66 66 66 67 67 68 69 71 73 74 77 84 90 105 115 122 130 132 150
79 78 76 75 74 75 74 72 69 67 66 65 66 65 64 65 65 64 65 69 67 66 66 66 65 65 66 66 67 67 69 69 71 73 74 74 81 90 96 107 113 118 129
77 77 75 77 75 73 74 74 73 71 68 67 66 65 63 64 66 65 66 66 65 64 64 64 65 66 66 68 68 69 70 70 71 71 74 76 78 82 85 89 94 99 103
68 71 73 70 72 73 70 70 70 70 69 68 66 63 62 64 63 62 63 63 64 64 63 63 64 65 65 67 68 69 69 70 71 73 75 77 78 81 84 85 87 90 94
93 61 59 65 64 64 67 68 69 69 68 68 69 67 65 64 62 62 62 62 62 62 62 63 63 63 64 65 67 68 69 70 72 74 76 77 78 78 81 84 84 86 88
110 108 74 53 53 57 59 63 66 66 67 67 67 66 65 66 64 62 62 62 62 63 63 63 63 62 63 64 66 67 69 71 72 73 75 76 77 78 78 81 83 82 80
106 102 100 93 58 45 48 52 54 56 59 61 63 63 63 62 63 62 62 61 61 62 63 63 63 62 63 65 66 68 69 70 73 75 76 78 79 78 79 80 81 81 80
97 101 99 92 98 87 51 38 41 47 48 49 53 56 58 59 60 59 61 61 61 60 60 61 62 62 63 64 65 67 69 72 76 78 80 79 80 82 85 84 84 82 78
94 96 94 94 92 86 95 88 58 38 36 38 40 41 43 49 52 54 56 57 59 59 58 58 58 59 61 63 64 66 66 70 74 77 80 81 81 81 80 81 81 80 78
82 83 86 97 98 95 96 84 82 87 69 42 30 28 28 30 33 39 44 46 50 56 58 57 58 56 56 60 64 66 68 70 73 76 79 79 80 80 81 80 80 79 78